Bangkok (Suvarnabhumi), Thailand

7:45 PM +07 on April 25, 2017 (GMT +0700)
Bangkok (Suvarnabhumi)

Weather History for VTBS - September, 2013

Change the Weather History Date:

Saturday, September 21, 2013

  Actual Average (VTBD) Record (VTBD)
Temperature  
Mean Temperature 82 °F -  
Max Temperature 88 °F 90 °F 95 °F (2001)
Min Temperature 76 °F 75 °F 73 °F (2007)
Cooling Degree Days 17    
Growing Degree Days 32 (Base 50)    
Moisture  
Dew Point 72 °F    
Average Humidity 72    
Maximum Humidity 93    
Minimum Humidity 58    
Precipitation  
Precipitation 0.24 in 0.31 in - ()
Sea Level Pressure  
Sea Level Pressure 29.69 in    
Wind  
Wind Speed 6 mph ()    
Max Wind Speed 15 mph    
Max Gust Speed -    
Visibility 6.2 miles    
Events Rain    
Averages and records for this station are not official NWS values.
T = Trace of Precipitation, MM = Missing Value Source: Averaged Metar Reports

Daily Weather History Graph

Daily Weather History Graph

Search for Another Location

Airport or City:

Trip Planner

Search our weather history database for the weather conditions in past years. The results will help you decide how hot, cold, wet, or windy it might be!

Date:

Astronomy

Sep. 21, 2013 Rise Set
Actual Time 6:05 AM +07 6:13 PM +07
Civil Twilight 5:43 AM +07 6:34 PM +07
Nautical Twilight 5:19 AM +07 6:58 PM +07
Astronomical Twilight 4:54 AM +07 7:23 PM +07
Moon 7:32 PM +07 (9/21) 7:25 AM +07 (9/21)
Length of Visible Light 12h 50m
Length of Day
12h 07m
Waning Gibbous, 96% of the Moon is Illuminated
Sep 21
Waning Gibbous
Sep 27
Last Quarter
Oct 5
New
Oct 12
First Quarter
Oct 19
Full

Hourly Weather History & Observations

Time (+07) Temp. Heat Index Dew Point Humidity Pressure Visibility Wind Dir Wind Speed Gust Speed Precip Events Conditions
12:00 AM 78.8 °F - 73.4 °F 83% 29.71 in 6.2 mi West 8.1 mph - N/A   Mostly Cloudy
12:30 AM 78.8 °F - 73.4 °F 83% 29.71 in 6.2 mi WSW 8.1 mph - N/A   Mostly Cloudy
1:00 AM 80 °F - 76 °F 83% 29.69 in 6 mi Calm Calm - -   Overcast
1:00 AM 78.8 °F - 73.4 °F 83% 29.71 in 6.2 mi SW 9.2 mph - N/A   Mostly Cloudy
1:30 AM 78.8 °F - 73.4 °F 83% 29.68 in 6.2 mi WSW 8.1 mph - N/A   Mostly Cloudy
2:00 AM 78.8 °F - 73.4 °F 83% 29.68 in 6.2 mi WSW 6.9 mph - N/A   Overcast
2:30 AM 78.8 °F - 71.6 °F 78% 29.68 in 6.2 mi WSW 9.2 mph - N/A   Overcast
3:00 AM 78.8 °F - 71.6 °F 78% 29.68 in 6.2 mi West 15.0 mph - N/A   Overcast
3:30 AM 77.0 °F - 71.6 °F 83% 29.68 in 6.2 mi WSW 9.2 mph - N/A Rain Light Rain
4:00 AM 77.0 °F - 71.6 °F 83% 29.68 in 6.2 mi WSW 5.8 mph - N/A Rain Light Rain
4:30 AM 77.0 °F - 71.6 °F 83% 29.68 in 6.2 mi WSW 6.9 mph - N/A   Mostly Cloudy
5:00 AM 77.0 °F - 71.6 °F 83% 29.68 in 6.2 mi WSW 4.6 mph - N/A   Overcast
5:30 AM 77.0 °F - 71.6 °F 83% 29.68 in 6.2 mi SW 5.8 mph - N/A Rain Light Rain
6:00 AM 77.0 °F - 71.6 °F 83% 29.68 in 6.2 mi SSW 3.5 mph - N/A Rain Light Rain
6:30 AM 77.0 °F - 71.6 °F 83% 29.68 in 6.2 mi SSW 3.5 mph - N/A   Overcast
7:00 AM 78 °F - 76 °F 93% 29.68 in 6 mi Calm Calm - -   Partly Cloudy
7:00 AM 77.0 °F - 73.4 °F 89% 29.68 in 6.2 mi SSW 3.5 mph - N/A   Mostly Cloudy
7:30 AM 78.8 °F - 73.4 °F 83% 29.71 in 6.2 mi West 3.5 mph - N/A   Mostly Cloudy
8:00 AM 80.6 °F 85.4 °F 73.4 °F 79% 29.71 in 6.2 mi West 4.6 mph - N/A   Mostly Cloudy
8:30 AM 82.4 °F 88.2 °F 73.4 °F 74% 29.71 in 6.2 mi WSW 4.6 mph - N/A   Mostly Cloudy
9:00 AM 84.2 °F 90.9 °F 73.4 °F 70% 29.74 in 6.2 mi WSW 9.2 mph - N/A   Mostly Cloudy
9:30 AM 84.2 °F 89.6 °F 71.6 °F 66% 29.74 in 6.2 mi SW 9.2 mph - N/A   Mostly Cloudy
10:00 AM 84.2 °F 89.6 °F 71.6 °F 66% 29.74 in 6.2 mi WSW 6.9 mph - N/A   Mostly Cloudy
10:30 AM 86.0 °F 91.8 °F 71.6 °F 62% 29.74 in 6.2 mi SW 8.1 mph - N/A   Mostly Cloudy
11:00 AM 86.0 °F 91.8 °F 71.6 °F 62% 29.74 in 6.2 mi SSW 6.9 mph - N/A   Mostly Cloudy
11:30 AM 86.0 °F 91.8 °F 71.6 °F 62% 29.71 in 6.2 mi SW 9.2 mph - N/A   Mostly Cloudy
12:00 PM 86.0 °F 91.8 °F 71.6 °F 62% 29.71 in 6.2 mi SW 8.1 mph - N/A   Mostly Cloudy
12:05 PM - - - N/A% 29.79 in - North - - N/A   Unknown
12:30 PM 86.0 °F 91.8 °F 71.6 °F 62% 29.68 in 6.2 mi SW 11.5 mph - N/A   Mostly Cloudy
1:00 PM 87 °F - 74 °F 58% 29.68 in 6 mi Calm Calm - -   Partly Cloudy
1:00 PM 87.8 °F 93.8 °F 71.6 °F 58% 29.68 in 6.2 mi SW 9.2 mph - N/A   Mostly Cloudy
1:30 PM 86.0 °F 95.1 °F 75.2 °F 70% 29.68 in 6.2 mi SSW 10.4 mph - N/A   Mostly Cloudy
2:00 PM 84.2 °F 89.6 °F 71.6 °F 66% 29.65 in 6.2 mi SSW 10.4 mph - N/A   Mostly Cloudy
2:30 PM 86.0 °F 91.8 °F 71.6 °F 62% 29.65 in 6.2 mi SSW 11.5 mph - N/A   Mostly Cloudy
3:00 PM 84.2 °F 90.9 °F 73.4 °F 70% 29.65 in 6.2 mi SSW 10.4 mph - N/A   Mostly Cloudy
3:30 PM 86.0 °F 91.8 °F 71.6 °F 62% 29.62 in 6.2 mi SW 10.4 mph - N/A   Mostly Cloudy
4:00 PM 86.0 °F 93.4 °F 73.4 °F 66% 29.62 in 6.2 mi SSW 12.7 mph - N/A   Mostly Cloudy
4:30 PM 86.0 °F 93.4 °F 73.4 °F 66% 29.62 in 6.2 mi SW 11.5 mph - N/A   Mostly Cloudy
5:00 PM 86.0 °F 93.4 °F 73.4 °F 66% 29.62 in 6.2 mi SSW 8.1 mph - N/A   Mostly Cloudy
5:30 PM 84.2 °F 90.9 °F 73.4 °F 70% 29.62 in 6.2 mi SSW 9.2 mph - N/A   Mostly Cloudy
6:00 PM 84.2 °F 90.9 °F 73.4 °F 70% 29.65 in 6.2 mi SSW 8.1 mph - N/A   Mostly Cloudy
6:30 PM 84.2 °F 89.6 °F 71.6 °F 66% 29.65 in 6.2 mi WSW 11.5 mph - N/A   Mostly Cloudy
7:00 PM 83 °F - 76 °F 73% 29.67 in 6 mi Calm Calm - -   Scattered Clouds
7:00 PM 84.2 °F 88.4 °F 69.8 °F 62% 29.68 in 6.2 mi WSW 8.1 mph - N/A   Mostly Cloudy
7:30 PM 84.2 °F 88.4 °F 69.8 °F 62% 29.68 in 6.2 mi WSW 8.1 mph - N/A   Mostly Cloudy
8:00 PM 84.2 °F 88.4 °F 69.8 °F 62% 29.68 in 6.2 mi WSW 5.8 mph - N/A   Mostly Cloudy
8:30 PM 84.2 °F 88.4 °F 69.8 °F 62% 29.68 in 6.2 mi WSW 5.8 mph - N/A   Mostly Cloudy
9:00 PM 84.2 °F 88.4 °F 69.8 °F 62% 29.71 in 6.2 mi WSW 5.8 mph - N/A   Mostly Cloudy
9:30 PM 82.4 °F 86.3 °F 69.8 °F 66% 29.71 in 6.2 mi WSW 4.6 mph - N/A   Mostly Cloudy
10:00 PM 82.4 °F 86.3 °F 69.8 °F 66% 29.71 in 6.2 mi SW 4.6 mph - N/A   Mostly Cloudy
10:30 PM 82.4 °F 86.3 °F 69.8 °F 66% 29.71 in 6.2 mi WSW 3.5 mph - N/A   Mostly Cloudy
11:00 PM 80.6 °F 84.6 °F 71.6 °F 74% 29.71 in 6.2 mi SW 3.5 mph - N/A   Mostly Cloudy
11:30 PM 80.6 °F 84.6 °F 71.6 °F 74% 29.71 in 6.2 mi SW 3.5 mph - N/A   Mostly Cloudy